Meteo Giornale » Osservazioni meteo Stati Uniti (USA) » Stanton

ore: 16:15 - Osservazioni Meteo Stanton
Lat. 44° 29' N Lon. 93° 1' W Alt. 280 metri s.l.m.

sereno

33 °C

Sereno

Temp. 24 Ore

21 °C

33 °C

Nord-Ovest

13 Km/h

Dew point 20 °C

Umidità 46 %

Visibilità  10 Km

Il sole sorge alle ore 06:33

Il sole tramonta alle ore 19:50

Data e Ora Cielo e Fenomeni T °C DP °C Um. % Pres. hPa Vis. km Vento km/h
Oggi h: 16:15 sereno Sereno 33 20 46 1011 10 NO 13
Oggi h: 15:55 sereno Sereno 33 20 46 1011 10 N 9.3
Oggi h: 15:35 sereno Sereno 33 21 49 1011 10 N/NO 7.4
Oggi h: 15:15 sereno Sereno 33 21 49 1011 10 N 7.4
Oggi h: 14:55 sereno Sereno 32 21 52 1011 10 N 0
Oggi h: 14:35 sereno Sereno 32 21 52 1011 10 NO 11.1
Oggi h: 14:15 sereno Sereno 31 22 58 1010 10 N 0
Oggi h: 13:55 sereno Sereno 32 22 55 1010 10 N 5.5
Oggi h: 13:35 sereno Sereno 31 22 58 1010 10 O 7.4
Oggi h: 13:15 sereno Sereno 30 23 66 1011 10 N 0
Oggi h: 12:55 sereno Sereno 30 23 66 1011 10 N 0
Oggi h: 12:35 sereno Sereno 30 23 66 1011 10 N 7.4
Oggi h: 12:15 sereno Sereno 29 24 74 1011 10 N/NO 7.4
Oggi h: 11:55 sereno Sereno 29 24 74 1011 10 N 5.5
Oggi h: 11:35 sereno Sereno 29 24 74 1011 10 N 0
Oggi h: 11:15 sereno Sereno 28 24 78 1011 10 NO 9.3
Oggi h: 10:55 sereno Sereno 28 24 78 1011 10 O/NO 11.1
Oggi h: 10:35 sereno Sereno 27 23 78 1011 10 O 11.1
Oggi h: 10:15 sereno Sereno 27 23 78 1010 10 O 11.1
Oggi h: 09:55 sereno Sereno 26 23 83 1010 10 O/SO 7.4
Oggi h: 09:35 sereno Sereno 26 23 83 1010 10 O/SO 9.3
Oggi h: 09:15 sereno Sereno 26 23 83 1010 10 O/SO 11.1
Oggi h: 08:55 sereno Sereno 25 23 88 1009 10 O/SO 7.4
Oggi h: 08:35 sereno Sereno 25 23 88 1009 10 S/SO 9.3
Oggi h: 08:15 sereno Sereno 24 23 94 1009 10 N 5.5
Oggi h: 07:55 sereno Sereno 23 23 100 1009 10 N 0
Oggi h: 07:35 sereno Sereno 22 22 100 1009 11 N 5.5
Oggi h: 07:15 sereno Sereno 22 22 100 1009 11 N 5.5
Oggi h: 06:55 sereno Sereno 21 21 100 1008 11 S 7.4
Oggi h: 06:35 sereno Sereno 21 21 100 1008 11 S/SO 7.4
Oggi h: 06:15 sereno Sereno 22 22 100 1008 10 N 5.5
Oggi h: 05:55 sereno Sereno 22 22 100 1008 10 S/SO 7.4
Oggi h: 05:35 sereno Sereno 22 22 100 1008 10 S 9.3
Oggi h: 05:15 sereno Sereno 22 22 100 1008 10 N 5.5
Oggi h: 04:55 sereno Sereno 22 22 100 1008 10 S 9.3
Oggi h: 04:35 sereno Sereno 23 23 100 1008 10 N 5.5
Oggi h: 04:15 sereno Sereno 23 23 100 1008 10 S 9.3
Oggi h: 03:55 sereno Sereno 23 23 100 1008 10 S 11.1
Oggi h: 03:35 sereno Sereno 23 23 100 1008 10 S 11.1
Oggi h: 03:15 sereno Sereno 23 23 100 1008 10 S 9.3
Oggi h: 02:55 sereno Sereno 23 23 100 1007 10 S 13
Oggi h: 02:35 sereno Sereno 22 22 100 1007 10 S 11.1
Oggi h: 02:15 sereno Sereno 22 22 100 1008 10 S 7.4
Oggi h: 01:55 sereno Sereno 22 22 100 1008 10 N 0
Oggi h: 01:35 sereno Sereno 23 22 94 1008 10 S 7.4
Oggi h: 01:15 sereno Sereno 23 22 94 1008 10 S 13
Oggi h: 00:55 sereno Sereno 23 21 88 1009 10 S/SE 9.3
Oggi h: 00:35 sereno Sereno 23 21 88 1009 10 S/SE 9.3
Oggi h: 00:15 sereno Sereno 23 21 88 1009 10 S/SE 13
Ieri h: 23:55 sereno Sereno 23 21 88 1009 10 S 11.1
Ieri h: 23:35 sereno Sereno 23 21 88 1009 10 S 11.1
Ieri h: 23:15 sereno Sereno 23 21 88 1009 10 S 9.3
Ieri h: 22:55 sereno Sereno 23 21 88 1009 10 S 9.3
Ieri h: 22:35 sereno Sereno 23 21 88 1009 10 S 13
Ieri h: 22:15 sereno Sereno 23 20 83 1009 10 S 18.5
Ieri h: 21:55 sereno Sereno 24 20 78 1009 10 S 14.8
Ieri h: 21:35 sereno Sereno 24 20 78 1009 10 S/SE 14.8
Ieri h: 21:15 sereno Sereno 24 20 78 1009 10 S/SE 13
Ieri h: 20:55 sereno Sereno 24 20 78 1009 10 S/SE 13
Ieri h: 20:35 sereno Sereno 24 20 78 1009 10 S 11.1
Ieri h: 20:15 sereno Sereno 25 20 73 1009 10 S 14.8
Ieri h: 19:55 sereno Sereno 25 20 73 1009 10 S/SE 14.8
Ieri h: 19:35 sereno Sereno 26 20 69 1009 10 S/SE 20.3
Ieri h: 19:15 sereno Sereno 27 19 61 1009 10 S/SE 18.5
Ieri h: 18:55 sereno Sereno 28 19 58 1008 10 S/SE 18.5
Ieri h: 18:35 sereno Sereno 29 20 58 1008 10 SE 16.7
Ieri h: 18:15 sereno Sereno 29 20 58 1008 10 S/SE 20.3
Ieri h: 17:55 sereno Sereno 30 20 55 1008 10 S 16.7
Ieri h: 17:35 sereno Sereno 30 21 58 1008 10 S 16.7
Ieri h: 17:15 sereno Sereno 30 21 58 1008 10 S/SE 13
Ieri h: 16:55 sereno Sereno 30 21 58 1008 10 S/SE 20.3
Ieri h: 16:35 sereno Sereno 30 21 58 1008 10 S 16.7